NOAA 16 DEB, 41159

Orbit data source: Space-Track

NOAA 16 DEB, 41159 is space debris in SSO originally from a launch on Thu, 21 Sep 2000 UTC launched from the Air Force Western Test Range (AFWTR). Debris objects in space refer to the collection of defunct objects orbiting the Earth. Examples of debris include non-operational satellites, rocket bodies, and fragments generated from explosions, collisions, or faulty payload assembly.

Loading next visibility...
Identifier
41159, 2000-055CS
Orbit
SSO
Country
Flag of USUS
Related business
Manufacturer
Unknown
Mission
Spacecraft
Bus & Motor
Unknown
Mass
Unknown
Launch date (UTC)
2000-09-21 (25 years ago)
Launch vehicle
Unknown
Launch site
Air Force Western Test Range (AFWTR)
Object type
Payload
Rocket body
Debris
Shape & HBR
Unknown shape, 0.1 m
Radar Cross Section
Small (<0.1 m²)

Expand to show TLE details & history
Last TLE update: 1 day ago

TLE from 1 day ago
0 NOAA 16 DEB
1 41159U 00055CS  26033.42617132  .00003522  00000-0  13164-2 0  9999
2 41159  98.6144 110.8491 0020608 214.6143 145.3700 14.32347007527516
Epoch: 2026-02-02T10:13Z
TLE epoch observation values (Epoch: 2026-02-02T10:13:41.202Z)
Latitude
-0.00002°
Longitude
-175.1942°
Altitude
798.988 km
Speed
7.448 km/s
True Right ascension
07h 23m 23s
True Declination
0° 00' 00"
Sunlit
Object was in full shadow at epoch
Visualization orbit readout
Latitude
Unknown
Longitude
Unknown
Altitude
Unknown
Speed
Unknown
Apparent Right ascension
Unknown
Apparent Declination
Unknown
Sunlit
N/A
Visualization observer readout
Local Sidereal Time
14:25:19
Azimuth
Unknown
Elevation
Unknown
Doppler factor
Unknown
Orbital elements
Apogee altitude
795.788 km
Perigee altitude
766.28 km
Semi-major axis
7,159.171 km
Eccentricity
0.00206
Inclination
98.6144°
RAAN
110.8491°
Arg. of periapsis
214.6143°
True anomaly
145.50391°
Mean anomaly
145.37°
Eccentric anomaly
145.43699°
Mean motion
3.58302 °/min
Orbital period
100.47 mins
BSTAR
0.0013164
Loading maneuver chart data...
Computing Atmospheric mass density...
Loading historical data...
Loading historical data...
Loading historical data...
Loading historical data...
Loading historical data...
Loading historical data...
Loading historical data...

Documentation

Showing up to 5 results
|